,,,PA_Meas_PMT16A,,PR_Meas_QMR101_102,,RH_Meas_QMH101,,SR_Meas_QMS101,,TA_Meas_QMH101,,GenWind,,GenWind,
date,time,status,PA,status,PR,status,RH,status,SR,status,TA,status,DirAvg,status,SpdAvg,
2009-03-27, 00:00:04,VALID,1002.31,VALID,0,VALID,91.8301,VALID,0,VALID,23.1939,VALID,99,VALID,0.507422,
2009-03-27, 00:01:04,VALID,1002.28,VALID,0,VALID,91.7843,VALID,0,VALID,23.1957,VALID,99,VALID,0.581641,
2009-03-27, 00:02:04,VALID,1002.29,VALID,0,VALID,91.4563,VALID,0,VALID,23.1762,VALID,97,VALID,0.551172,
2009-03-27, 00:03:04,VALID,1002.27,VALID,0,VALID,90.8688,VALID,0,VALID,23.1566,VALID,74,VALID,0.752344,
2009-03-27, 00:04:04,VALID,1002.26,VALID,0,VALID,90.6704,VALID,0,VALID,23.1354,VALID,65,VALID,0.765234,
2009-03-27, 00:05:04,VALID,1002.26,VALID,0,VALID,90.3957,VALID,0,VALID,23.1566,VALID,55,VALID,0.963281,
2009-03-27, 00:06:04,VALID,1002.24,VALID,0,VALID,90.0906,VALID,0,VALID,23.1354,VALID,55,VALID,1.04609,
2009-03-27, 00:07:04,VALID,1002.21,VALID,0,VALID,90.3118,VALID,0,VALID,23.1354,VALID,55,VALID,0.953516,
2009-03-27, 00:08:04,VALID,1002.18,VALID,0,VALID,90.2508,VALID,0,VALID,23.1566,VALID,55,VALID,0.986719,
2009-03-27, 00:09:04,VALID,1002.18,VALID,0,VALID,90.1821,VALID,0,VALID,23.1566,VALID,64,VALID,1.09414,
2009-03-27, 00:10:04,VALID,1002.19,VALID,0,VALID,90.1745,VALID,0,VALID,23.1176,VALID,70,VALID,0.913281,
2009-03-27, 00:11:04,VALID,1002.16,VALID,0,VALID,90.3347,VALID,0,VALID,23.1176,VALID,76,VALID,0.825391,
2009-03-27, 00:12:04,VALID,1002.19,VALID,0,VALID,90.3805,VALID,0,VALID,23.1176,VALID,78,VALID,0.851563,
2009-03-27, 00:13:04,VALID,1002.17,VALID,0,VALID,90.3347,VALID,0,VALID,23.0981,VALID,77,VALID,0.911719,
2009-03-27, 00:14:04,VALID,1002.19,VALID,0,VALID,90.2203,VALID,0,VALID,23.0786,VALID,72,VALID,0.930469,
2009-03-27, 00:15:04,VALID,1002.16,VALID,0,VALID,90.2966,VALID,0,VALID,23.0786,VALID,71,VALID,0.777734,
2009-03-27, 00:16:04,VALID,1002.18,VALID,0,VALID,90.2889,VALID,0,VALID,23.0591,VALID,71,VALID,0.685938,
2009-03-27, 00:17:04,VALID,1002.17,VALID,0,VALID,90.3347,VALID,0,VALID,23.0786,VALID,71,VALID,0.539844,
2009-03-27, 00:18:04,VALID,1002.14,VALID,0,VALID,90.3576,VALID,0,VALID,23.0591,VALID,71,VALID,0.485156,
2009-03-27, 00:19:04,VALID,1002.14,VALID,0,VALID,90.3805,VALID,0,VALID,23.0396,VALID,72,VALID,0.544141,
2009-03-27, 00:20:04,VALID,1002.12,VALID,0,VALID,90.4873,VALID,0,VALID,23.0183,VALID,72,VALID,0.491406,
2009-03-27, 00:21:04,VALID,1002.08,VALID,0,VALID,90.6323,VALID,0,VALID,23.0201,VALID,73,VALID,0.448047,
2009-03-27, 00:22:04,VALID,1002.09,VALID,0,VALID,90.556,VALID,0,VALID,23.0396,VALID,81,VALID,0.699219,
2009-03-27, 00:23:04,VALID,1002.09,VALID,0,VALID,90.5483,VALID,0,VALID,23.0201,VALID,82,VALID,0.676953,
2009-03-27, 00:24:04,VALID,1002.06,VALID,0,VALID,90.6475,VALID,0,VALID,23.0183,VALID,83,VALID,0.473047,
2009-03-27, 00:25:04,VALID,1002.09,VALID,0,VALID,90.6399,VALID,0,VALID,23.0396,VALID,90,VALID,0.753125,
2009-03-27, 00:26:04,VALID,1002.04,VALID,0,VALID,90.7543,VALID,0,VALID,23.0183,VALID,95,VALID,0.391797,
2009-03-27, 00:27:04,VALID,1002.04,VALID,0,VALID,90.8993,VALID,0,VALID,23.0591,VALID,95,VALID,0.276953,
2009-03-27, 00:28:04,VALID,1002.03,VALID,0,VALID,90.9451,VALID,0,VALID,23.0378,VALID,95,VALID,0.204688,
2009-03-27, 00:29:04,VALID,1001.99,VALID,0,VALID,90.9069,VALID,0,VALID,23.0183,VALID,95,VALID,0.396484,
2009-03-27, 00:30:04,VALID,1002,VALID,0,VALID,90.8764,VALID,0,VALID,23.0396,VALID,95,VALID,0.0109375,
2009-03-27, 00:31:04,VALID,1001.99,VALID,0,VALID,90.968,VALID,0,VALID,23.0183,VALID,95,VALID,0.133203,
2009-03-27, 00:32:04,VALID,1001.99,VALID,0,VALID,91.1816,VALID,0,VALID,23.0201,VALID,95,VALID,0.153125,
2009-03-27, 00:33:04,VALID,1001.97,VALID,0,VALID,91.2503,VALID,0,VALID,23.0201,VALID,95,VALID,0.359375,
2009-03-27, 00:34:04,VALID,1001.98,VALID,0,VALID,91.235,VALID,0,VALID,23.0006,VALID,95,VALID,0.266406,
2009-03-27, 00:35:04,VALID,1001.96,VALID,0,VALID,91.2045,VALID,0,VALID,22.9988,VALID,95,VALID,0.409375,
2009-03-27, 00:36:04,VALID,1001.96,VALID,0,VALID,91.2197,VALID,0,VALID,23.0201,VALID,95,VALID,0.348047,
2009-03-27, 00:37:04,VALID,1001.95,VALID,0,VALID,91.4563,VALID,0,VALID,23.0396,VALID,95,VALID,0.175781,
2009-03-27, 00:38:04,VALID,1001.93,VALID,0,VALID,91.4639,VALID,0,VALID,23.0396,VALID,95,VALID,0,
2009-03-27, 00:39:04,VALID,1001.95,VALID,0,VALID,91.3342,VALID,0,VALID,23.0201,VALID,95,VALID,0.343359,
2009-03-27, 00:40:04,VALID,1001.93,VALID,0,VALID,91.3342,VALID,0,VALID,23.0201,VALID,115,VALID,0.603516,
2009-03-27, 00:41:04,VALID,1001.92,VALID,0,VALID,91.4028,VALID,0,VALID,23.0201,VALID,131,VALID,0.413672,
2009-03-27, 00:42:04,VALID,1001.87,VALID,0,VALID,91.4181,VALID,0,VALID,23.0201,VALID,131,VALID,0.504297,
2009-03-27, 00:43:04,VALID,1001.92,VALID,0,VALID,91.4486,VALID,0,VALID,23.0396,VALID,113,VALID,0.563281,
2009-03-27, 00:44:04,VALID,1001.89,VALID,0,VALID,91.5173,VALID,0,VALID,23.0396,VALID,102,VALID,0.656641,
2009-03-27, 00:45:04,VALID,1001.89,VALID,0,VALID,91.6088,VALID,0,VALID,23.0608,VALID,98,VALID,0.783594,
2009-03-27, 00:46:04,VALID,1001.86,VALID,0,VALID,91.5554,VALID,0,VALID,23.0591,VALID,97,VALID,0.756641,
2009-03-27, 00:47:04,VALID,1001.84,VALID,0,VALID,91.7004,VALID,0,VALID,23.0396,VALID,95,VALID,0.573438,
2009-03-27, 00:48:04,VALID,1001.79,VALID,0,VALID,91.7309,VALID,0,VALID,23.0396,VALID,95,VALID,0.586719,
2009-03-27, 00:49:04,VALID,1001.78,VALID,0,VALID,91.7614,VALID,0,VALID,23.0396,VALID,107,VALID,0.570703,
2009-03-27, 00:50:04,VALID,1001.74,VALID,0,VALID,91.7157,VALID,0,VALID,23.0396,VALID,112,VALID,0.455469,
2009-03-27, 00:51:04,VALID,1001.71,VALID,0,VALID,91.7614,VALID,0,VALID,23.0396,VALID,112,VALID,0.591406,
2009-03-27, 00:52:04,VALID,1001.7,VALID,0,VALID,91.7996,VALID,0,VALID,23.0396,VALID,112,VALID,0.144922,
2009-03-27, 00:53:04,VALID,1001.7,VALID,0,VALID,91.8377,VALID,0,VALID,23.0201,VALID,112,VALID,0.121094,
2009-03-27, 00:54:04,VALID,1001.69,VALID,0,VALID,91.8454,VALID,0,VALID,23.0201,VALID,112,VALID,0,
2009-03-27, 00:55:04,VALID,1001.69,VALID,0,VALID,91.8072,VALID,0,VALID,23.0201,VALID,112,VALID,0,
2009-03-27, 00:56:04,VALID,1001.66,VALID,0,VALID,91.8911,VALID,0,VALID,23.0006,VALID,112,VALID,0.00429688,
2009-03-27, 00:57:04,VALID,1001.65,VALID,0,VALID,91.9522,VALID,0,VALID,22.9811,VALID,112,VALID,0,
2009-03-27, 00:58:04,VALID,1001.66,VALID,0,VALID,92.1048,VALID,0,VALID,22.9615,VALID,112,VALID,0,
2009-03-27, 00:59:04,VALID,1001.68,VALID,0,VALID,92.1811,VALID,0,VALID,23.0023,VALID,112,VALID,0.216016,
2009-03-27, 01:00:04,VALID,1001.66,VALID,0,VALID,92.2116,VALID,0,VALID,23.0006,VALID,112,VALID,0.357422,
2009-03-27, 01:01:04,VALID,1001.66,VALID,0,VALID,92.0132,VALID,0,VALID,23.0218,VALID,112,VALID,0.386719,
2009-03-27, 01:02:04,VALID,1001.65,VALID,0,VALID,91.8988,VALID,0,VALID,23.0006,VALID,112,VALID,0.383203,
2009-03-27, 01:03:04,VALID,1001.64,VALID,0,VALID,91.09,VALID,0,VALID,23.0006,VALID,149,VALID,0.958984,
2009-03-27, 01:04:04,VALID,1001.61,VALID,0,VALID,90.3728,VALID,0,VALID,22.9811,VALID,145,VALID,0.965625,
2009-03-27, 01:05:04,VALID,1001.62,VALID,0,VALID,90.0143,VALID,0,VALID,23.0396,VALID,145,VALID,1.13398,
2009-03-27, 01:06:04,VALID,1001.58,VALID,0,VALID,89.7854,VALID,0,VALID,23.0591,VALID,145,VALID,1.07969,
2009-03-27, 01:07:04,VALID,1001.56,VALID,0,VALID,89.4954,VALID,0,VALID,23.0981,VALID,139,VALID,1.05977,
2009-03-27, 01:08:04,VALID,1001.58,VALID,0,VALID,89.5489,VALID,0,VALID,23.0981,VALID,148,VALID,1.10195,
2009-03-27, 01:09:04,VALID,1001.59,VALID,0,VALID,89.4802,VALID,0,VALID,23.0981,VALID,141,VALID,0.845312,
2009-03-27, 01:10:04,VALID,1001.61,VALID,0,VALID,89.4726,VALID,0,VALID,23.0981,VALID,140,VALID,0.721484,
2009-03-27, 01:11:04,VALID,1001.62,VALID,0,VALID,89.442,VALID,0,VALID,23.1176,VALID,145,VALID,0.675391,
2009-03-27, 01:12:04,VALID,1001.59,VALID,0,VALID,89.4726,VALID,0,VALID,23.1176,VALID,145,VALID,0.533594,
2009-03-27, 01:13:04,VALID,1001.59,VALID,0,VALID,89.4039,VALID,0,VALID,23.1176,VALID,149,VALID,0.58125,
2009-03-27, 01:14:04,VALID,1001.56,VALID,0,VALID,89.2742,VALID,0,VALID,23.0964,VALID,152,VALID,0.729297,
2009-03-27, 01:15:04,VALID,1001.55,VALID,0,VALID,89.2513,VALID,0,VALID,23.1176,VALID,150,VALID,0.488281,
2009-03-27, 01:16:04,VALID,1001.52,VALID,0,VALID,89.0148,VALID,0,VALID,23.1176,VALID,133,VALID,0.816016,
2009-03-27, 01:17:04,VALID,1001.53,VALID,0,VALID,89.0224,VALID,0,VALID,23.1584,VALID,137,VALID,0.6125,
2009-03-27, 01:18:04,VALID,1001.52,VALID,0,VALID,88.9309,VALID,0,VALID,23.1566,VALID,147,VALID,0.560547,
2009-03-27, 01:19:04,VALID,1001.51,VALID,0,VALID,88.702,VALID,0,VALID,23.1566,VALID,146,VALID,0.586719,
2009-03-27, 01:20:04,VALID,1001.52,VALID,0,VALID,88.8469,VALID,0,VALID,23.1566,VALID,146,VALID,0.423047,
2009-03-27, 01:21:04,VALID,1001.49,VALID,0,VALID,88.8622,VALID,0,VALID,23.1371,VALID,147,VALID,0.5875,
2009-03-27, 01:22:04,VALID,1001.47,VALID,0,VALID,88.7477,VALID,0,VALID,23.1176,VALID,150,VALID,0.773047,
2009-03-27, 01:23:04,VALID,1001.45,VALID,0,VALID,88.7554,VALID,0,VALID,23.1371,VALID,150,VALID,0.615625,
2009-03-27, 01:24:04,VALID,1001.44,VALID,0,VALID,88.6867,VALID,0,VALID,23.1371,VALID,150,VALID,0.773047,
2009-03-27, 01:25:04,VALID,1001.4,VALID,0,VALID,88.7783,VALID,0,VALID,23.1566,VALID,149,VALID,0.794922,
2009-03-27, 01:26:04,VALID,1001.4,VALID,0,VALID,88.7249,VALID,0,VALID,23.1762,VALID,149,VALID,0.917969,
2009-03-27, 01:27:04,VALID,1001.35,VALID,0,VALID,88.7096,VALID,0,VALID,23.1762,VALID,148,VALID,0.775,
2009-03-27, 01:28:04,VALID,1001.33,VALID,0,VALID,89.0071,VALID,0,VALID,23.1744,VALID,148,VALID,0.866797,
2009-03-27, 01:29:04,VALID,1001.32,VALID,0,VALID,89.0377,VALID,0,VALID,23.1566,VALID,142,VALID,0.867969,
2009-03-27, 01:30:04,VALID,1001.28,VALID,0,VALID,89.0071,VALID,0,VALID,23.1371,VALID,133,VALID,1.05977,
2009-03-27, 01:31:04,VALID,1001.3,VALID,0,VALID,89.3047,VALID,0,VALID,23.1566,VALID,132,VALID,0.809766,
2009-03-27, 01:32:04,VALID,1001.28,VALID,0,VALID,89.4039,VALID,0,VALID,23.1354,VALID,125,VALID,1,
2009-03-27, 01:33:04,VALID,1001.28,VALID,0,VALID,89.5946,VALID,0,VALID,23.1159,VALID,116,VALID,1.15508,
2009-03-27, 01:34:04,VALID,1001.29,VALID,0,VALID,89.854,VALID,0,VALID,23.1159,VALID,119,VALID,0.876172,
2009-03-27, 01:35:04,VALID,1001.3,VALID,0,VALID,90.1134,VALID,0,VALID,23.1176,VALID,115,VALID,0.320703,
2009-03-27, 01:36:04,VALID,1001.32,VALID,0,VALID,90.3957,VALID,0,VALID,23.1176,VALID,103,VALID,0.444922,
2009-03-27, 01:37:04,VALID,1001.3,VALID,0,VALID,90.6399,VALID,0,VALID,23.0769,VALID,103,VALID,0.355469,
2009-03-27, 01:38:04,VALID,1001.33,VALID,0,VALID,90.7467,VALID,0,VALID,23.0573,VALID,103,VALID,0.0339844,
2009-03-27, 01:39:04,VALID,1001.33,VALID,0,VALID,90.8764,VALID,0,VALID,23.0786,VALID,103,VALID,0,
2009-03-27, 01:40:04,VALID,1001.31,VALID,0,VALID,90.9069,VALID,0,VALID,23.0183,VALID,103,VALID,0.0183594,
2009-03-27, 01:41:04,VALID,1001.29,VALID,0,VALID,90.9222,VALID,0,VALID,23.0201,VALID,103,VALID,0,
2009-03-27, 01:42:04,VALID,1001.28,VALID,0,VALID,91.1129,VALID,0,VALID,23.0006,VALID,103,VALID,0.108984,
2009-03-27, 01:43:04,VALID,1001.25,VALID,0,VALID,90.8764,VALID,0,VALID,22.9598,VALID,98,VALID,0.691016,
2009-03-27, 01:44:04,VALID,1001.28,VALID,0,VALID,90.9374,VALID,0,VALID,23.0006,VALID,85,VALID,0.748047,
2009-03-27, 01:45:04,VALID,1001.26,VALID,0,VALID,90.7543,VALID,0,VALID,23.0006,VALID,71,VALID,0.694141,
2009-03-27, 01:46:04,VALID,1001.25,VALID,0,VALID,90.5483,VALID,0,VALID,23.0006,VALID,71,VALID,0.577734,
2009-03-27, 01:47:04,VALID,1001.23,VALID,0,VALID,90.1745,VALID,0,VALID,23.0201,VALID,71,VALID,0.432422,
2009-03-27, 01:48:04,VALID,1001.22,VALID,0,VALID,90.0448,VALID,0,VALID,23.0201,VALID,71,VALID,0.405078,
2009-03-27, 01:49:04,VALID,1001.22,VALID,0,VALID,89.9303,VALID,0,VALID,23.0183,VALID,71,VALID,0.374219,
2009-03-27, 01:50:04,VALID,1001.21,VALID,0,VALID,90.266,VALID,0,VALID,23.0591,VALID,71,VALID,0.306641,
2009-03-27, 01:51:04,VALID,1001.19,VALID,0,VALID,89.9914,VALID,0,VALID,23.0396,VALID,71,VALID,0.304688,
2009-03-27, 01:52:04,VALID,1001.17,VALID,0,VALID,89.8235,VALID,0,VALID,23.0396,VALID,71,VALID,0.173438,
2009-03-27, 01:53:04,VALID,1001.17,VALID,0,VALID,89.8235,VALID,0,VALID,23.0396,VALID,71,VALID,0.347266,
2009-03-27, 01:54:04,VALID,1001.17,VALID,0,VALID,89.5336,VALID,0,VALID,23.0591,VALID,128,VALID,0.592969,
2009-03-27, 01:55:04,VALID,1001.18,VALID,0,VALID,89.6557,VALID,0,VALID,23.0769,VALID,144,VALID,0.657422,
2009-03-27, 01:56:04,VALID,1001.17,VALID,0,VALID,89.7091,VALID,0,VALID,23.0964,VALID,144,VALID,0.435547,
2009-03-27, 01:57:04,VALID,1001.16,VALID,0,VALID,89.7091,VALID,0,VALID,23.1176,VALID,145,VALID,0.326953,
2009-03-27, 01:58:04,VALID,1001.16,VALID,0,VALID,89.9074,VALID,0,VALID,23.0964,VALID,145,VALID,0.501172,
2009-03-27, 01:59:04,VALID,1001.19,VALID,0,VALID,89.732,VALID,0,VALID,23.1371,VALID,145,VALID,0.540625,
2009-03-27, 02:00:04,VALID,1001.16,VALID,0,VALID,89.8617,VALID,0,VALID,23.1354,VALID,145,VALID,0.463281,
2009-03-27, 02:01:04,VALID,1001.16,VALID,0,VALID,89.9074,VALID,0,VALID,23.1354,VALID,145,VALID,0.557813,
2009-03-27, 02:02:04,VALID,1001.15,VALID,0,VALID,89.6862,VALID,0,VALID,23.1762,VALID,145,VALID,0.478125,
2009-03-27, 02:03:04,VALID,1001.15,VALID,0,VALID,89.587,VALID,0,VALID,23.1354,VALID,145,VALID,0.562891,
2009-03-27, 02:04:04,VALID,1001.13,VALID,0,VALID,89.32,VALID,0,VALID,23.1371,VALID,145,VALID,0.334766,
2009-03-27, 02:05:04,VALID,1001.1,VALID,0,VALID,89.3123,VALID,0,VALID,23.1354,VALID,145,VALID,0.345313,
2009-03-27, 02:06:04,VALID,1001.13,VALID,0,VALID,89.2742,VALID,0,VALID,23.1566,VALID,139,VALID,0.603906,
2009-03-27, 02:07:04,VALID,1001.11,VALID,0,VALID,89.1368,VALID,0,VALID,23.1354,VALID,137,VALID,0.519531,
2009-03-27, 02:08:04,VALID,1001.11,VALID,0,VALID,88.908,VALID,0,VALID,23.1354,VALID,136,VALID,0.566406,
2009-03-27, 02:09:04,VALID,1001.12,VALID,0,VALID,89.114,VALID,0,VALID,23.1744,VALID,136,VALID,0.228906,
2009-03-27, 02:10:04,VALID,1001.09,VALID,0,VALID,89.1368,VALID,0,VALID,23.1957,VALID,126,VALID,0.386328,
2009-03-27, 02:11:04,VALID,1001.08,VALID,0,VALID,89.4497,VALID,0,VALID,23.2152,VALID,126,VALID,0.172656,
2009-03-27, 02:12:04,VALID,1001.08,VALID,0,VALID,89.2437,VALID,0,VALID,23.2152,VALID,126,VALID,0.455859,
2009-03-27, 02:13:04,VALID,1001.07,VALID,0,VALID,89.1826,VALID,0,VALID,23.1939,VALID,126,VALID,0.532422,
2009-03-27, 02:14:04,VALID,1001.08,VALID,0,VALID,89.3505,VALID,0,VALID,23.1939,VALID,126,VALID,0.442969,
2009-03-27, 02:15:04,VALID,1001.07,VALID,0,VALID,89.4039,VALID,0,VALID,23.2152,VALID,125,VALID,0.612891,
2009-03-27, 02:16:04,VALID,1001.07,VALID,0,VALID,89.2971,VALID,0,VALID,23.1744,VALID,125,VALID,0.596875,
2009-03-27, 02:17:04,VALID,1001.05,VALID,0,VALID,89.3123,VALID,0.112286,VALID,23.1744,VALID,118,VALID,0.700391,
2009-03-27, 02:18:04,VALID,1001.04,VALID,0,VALID,89.4039,VALID,0,VALID,23.1957,VALID,116,VALID,0.584766,
2009-03-27, 02:19:04,VALID,1001.02,VALID,0,VALID,89.2055,VALID,0,VALID,23.1744,VALID,111,VALID,0.589063,
2009-03-27, 02:20:04,VALID,1001.07,VALID,0,VALID,89.5031,VALID,0,VALID,23.1939,VALID,109,VALID,0.599219,
2009-03-27, 02:21:04,VALID,1001.05,VALID,0,VALID,89.5412,VALID,0,VALID,23.2152,VALID,101,VALID,0.662891,
2009-03-27, 02:22:04,VALID,1001.01,VALID,0,VALID,89.526,VALID,0,VALID,23.2152,VALID,101,VALID,0.673437,
2009-03-27, 02:23:04,VALID,1001.05,VALID,0,VALID,89.2666,VALID,0,VALID,23.2152,VALID,98,VALID,0.914063,
2009-03-27, 02:24:04,VALID,1001.03,VALID,0,VALID,89.8083,VALID,0,VALID,23.2347,VALID,94,VALID,0.559766,
2009-03-27, 02:25:04,VALID,1001.05,VALID,0,VALID,89.8464,VALID,0,VALID,23.2347,VALID,94,VALID,0.532422,
2009-03-27, 02:26:04,VALID,1001.05,VALID,0,VALID,89.8693,VALID,0,VALID,23.2347,VALID,84,VALID,0.669531,
2009-03-27, 02:27:04,VALID,1001,VALID,0,VALID,89.6175,VALID,0,VALID,23.1939,VALID,74,VALID,0.733984,
2009-03-27, 02:28:04,VALID,1000.98,VALID,0,VALID,89.6938,VALID,0,VALID,23.1939,VALID,74,VALID,0.649609,
2009-03-27, 02:29:04,VALID,1001,VALID,0,VALID,89.7625,VALID,0,VALID,23.1957,VALID,74,VALID,0.510547,
2009-03-27, 02:30:04,VALID,1000.99,VALID,0,VALID,89.4954,VALID,0,VALID,23.1762,VALID,74,VALID,0.642187,
2009-03-27, 02:31:04,VALID,1000.98,VALID,0,VALID,89.3276,VALID,0,VALID,23.1354,VALID,74,VALID,0.625781,
2009-03-27, 02:32:04,VALID,1000.97,VALID,0,VALID,89.3047,VALID,0,VALID,23.1354,VALID,73,VALID,0.492578,
2009-03-27, 02:33:04,VALID,1000.94,VALID,0,VALID,89.3352,VALID,0,VALID,23.1371,VALID,73,VALID,0.418359,
2009-03-27, 02:34:04,VALID,1000.91,VALID,0,VALID,89.4497,VALID,0,VALID,23.1159,VALID,73,VALID,0.333594,
2009-03-27, 02:35:04,VALID,1000.9,VALID,0,VALID,89.4268,VALID,0,VALID,23.1159,VALID,73,VALID,0.436328,
2009-03-27, 02:36:04,VALID,1000.89,VALID,0,VALID,89.9761,VALID,0,VALID,23.1762,VALID,73,VALID,0.285937,
2009-03-27, 02:37:04,VALID,1000.92,VALID,0,VALID,90.3576,VALID,0,VALID,23.1566,VALID,73,VALID,0.504297,
2009-03-27, 02:38:04,VALID,1000.93,VALID,0,VALID,90.6475,VALID,0,VALID,23.1354,VALID,73,VALID,0.427344,
2009-03-27, 02:39:04,VALID,1000.91,VALID,0,VALID,90.8154,VALID,0,VALID,23.1159,VALID,72,VALID,0.618359,
2009-03-27, 02:40:04,VALID,1000.93,VALID,0,VALID,90.823,VALID,0,VALID,23.0981,VALID,54,VALID,0.696875,
2009-03-27, 02:41:04,VALID,1000.89,VALID,0,VALID,90.8764,VALID,0,VALID,23.0981,VALID,38,VALID,0.894922,
2009-03-27, 02:42:04,VALID,1000.88,VALID,0,VALID,90.9222,VALID,0,VALID,23.0591,VALID,38,VALID,0.726563,
2009-03-27, 02:43:04,VALID,1000.89,VALID,0,VALID,91.0214,VALID,0,VALID,23.0396,VALID,38,VALID,0.721484,
2009-03-27, 02:44:04,VALID,1000.88,VALID,0,VALID,91.1511,VALID,0,VALID,23.0006,VALID,38,VALID,0.760156,
2009-03-27, 02:45:04,VALID,1000.88,VALID,0,VALID,91.235,VALID,0,VALID,22.9811,VALID,38,VALID,0.723437,
2009-03-27, 02:46:04,VALID,1000.89,VALID,0,VALID,91.3723,VALID,0,VALID,22.9615,VALID,38,VALID,0.551562,
2009-03-27, 02:47:04,VALID,1000.89,VALID,0,VALID,91.502,VALID,0,VALID,22.942,VALID,38,VALID,0.460938,
2009-03-27, 02:48:04,VALID,1000.87,VALID,0,VALID,91.6317,VALID,0,VALID,22.942,VALID,38,VALID,0.358984,
2009-03-27, 02:49:04,VALID,1000.89,VALID,0,VALID,91.7309,VALID,0,VALID,22.9225,VALID,38,VALID,0.226563,
2009-03-27, 02:50:04,VALID,1000.89,VALID,0,VALID,91.8225,VALID,0,VALID,22.8835,VALID,38,VALID,0.0574219,
2009-03-27, 02:51:04,VALID,1000.89,VALID,0,VALID,91.8911,VALID,0,VALID,22.8835,VALID,38,VALID,0,
2009-03-27, 02:52:04,VALID,1000.91,VALID,0,VALID,91.8683,VALID,0,VALID,22.8835,VALID,38,VALID,0,
2009-03-27, 02:53:04,VALID,1000.91,VALID,0,VALID,91.8835,VALID,0,VALID,22.864,VALID,38,VALID,0,
2009-03-27, 02:54:04,VALID,1000.9,VALID,0,VALID,91.9522,VALID,0,VALID,22.8835,VALID,38,VALID,0,
2009-03-27, 02:55:04,VALID,1000.9,VALID,0,VALID,92.059,VALID,0,VALID,22.8818,VALID,38,VALID,0.248828,
2009-03-27, 02:56:04,VALID,1000.9,VALID,0,VALID,92.2116,VALID,0,VALID,22.9225,VALID,38,VALID,0.420312,
2009-03-27, 02:57:04,VALID,1000.89,VALID,0,VALID,92.2116,VALID,0,VALID,22.9225,VALID,38,VALID,0.494141,
2009-03-27, 02:58:04,VALID,1000.89,VALID,0,VALID,92.265,VALID,0,VALID,22.9013,VALID,38,VALID,0.396875,
2009-03-27, 02:59:04,VALID,1000.9,VALID,0,VALID,92.2268,VALID,0,VALID,22.8818,VALID,38,VALID,0.350391,
2009-03-27, 03:00:04,VALID,1000.89,VALID,0,VALID,92.1124,VALID,0,VALID,22.8835,VALID,38,VALID,0.148047,
2009-03-27, 03:01:04,VALID,1000.86,VALID,0,VALID,92.1582,VALID,0,VALID,22.903,VALID,38,VALID,0.209375,
2009-03-27, 03:02:04,VALID,1000.88,VALID,0,VALID,92.1277,VALID,0,VALID,22.903,VALID,38,VALID,0.189063,
2009-03-27, 03:03:04,VALID,1000.89,VALID,0,VALID,92.0895,VALID,0,VALID,22.9225,VALID,38,VALID,0.153125,
2009-03-27, 03:04:04,VALID,1000.89,VALID,0,VALID,92.0285,VALID,0,VALID,22.9013,VALID,38,VALID,0,
2009-03-27, 03:05:04,VALID,1000.91,VALID,0,VALID,92.0209,VALID,0,VALID,22.9225,VALID,38,VALID,0,
2009-03-27, 03:06:04,VALID,1000.91,VALID,0,VALID,92.0437,VALID,0,VALID,22.8818,VALID,38,VALID,0,
2009-03-27, 03:07:04,VALID,1000.93,VALID,0,VALID,92.12,VALID,0,VALID,22.903,VALID,38,VALID,0.0167969,
2009-03-27, 03:08:04,VALID,1000.95,VALID,0,VALID,92.0514,VALID,0,VALID,22.903,VALID,38,VALID,0.315625,
2009-03-27, 03:09:04,VALID,1000.94,VALID,0,VALID,92.1353,VALID,0,VALID,22.903,VALID,38,VALID,0.316797,
2009-03-27, 03:10:04,VALID,1000.91,VALID,0,VALID,91.9903,VALID,0,VALID,22.903,VALID,38,VALID,0.378125,
2009-03-27, 03:11:04,VALID,1000.92,VALID,0,VALID,92.059,VALID,0,VALID,22.8818,VALID,38,VALID,0.419141,
2009-03-27, 03:12:04,VALID,1000.93,VALID,0,VALID,91.6088,VALID,0,VALID,22.8623,VALID,83,VALID,0.717188,
2009-03-27, 03:13:04,VALID,1000.95,VALID,0,VALID,91.4944,VALID,0,VALID,22.903,VALID,98,VALID,0.53125,
2009-03-27, 03:14:04,VALID,1000.95,VALID,0,VALID,91.2808,VALID,0,VALID,22.9013,VALID,98,VALID,0.707812,
2009-03-27, 03:15:04,VALID,1000.98,VALID,0,VALID,91.1282,VALID,0,VALID,22.9615,VALID,98,VALID,0.608984,
2009-03-27, 03:16:04,VALID,1000.98,VALID,0,VALID,90.8993,VALID,0,VALID,22.9811,VALID,97,VALID,0.536328,
2009-03-27, 03:17:04,VALID,1000.99,VALID,0,VALID,90.7314,VALID,0,VALID,22.9793,VALID,97,VALID,0.536328,
2009-03-27, 03:18:04,VALID,1001.02,VALID,0,VALID,90.5636,VALID,0,VALID,23.0183,VALID,97,VALID,0.440625,
2009-03-27, 03:19:04,VALID,1000.99,VALID,0,VALID,90.5636,VALID,0,VALID,23.0201,VALID,97,VALID,0.476172,
2009-03-27, 03:20:04,VALID,1000.98,VALID,0,VALID,90.6323,VALID,0,VALID,23.0396,VALID,97,VALID,0.362109,
2009-03-27, 03:21:04,VALID,1000.97,VALID,0,VALID,90.6857,VALID,0,VALID,23.0378,VALID,98,VALID,0.287109,
2009-03-27, 03:22:04,VALID,1000.98,VALID,0,VALID,90.6857,VALID,0,VALID,23.0591,VALID,98,VALID,0.351563,
2009-03-27, 03:23:04,VALID,1000.99,VALID,0,VALID,90.8611,VALID,0,VALID,23.0378,VALID,98,VALID,0.370313,
2009-03-27, 03:24:04,VALID,1000.94,VALID,0,VALID,91.0366,VALID,0,VALID,23.0786,VALID,98,VALID,0.485156,
2009-03-27, 03:25:04,VALID,1000.95,VALID,0,VALID,91.0443,VALID,0,VALID,23.0786,VALID,98,VALID,0.33125,
2009-03-27, 03:26:04,VALID,1000.94,VALID,0,VALID,91.0519,VALID,0,VALID,23.0786,VALID,106,VALID,0.403906,
2009-03-27, 03:27:04,VALID,1000.93,VALID,0,VALID,91.0595,VALID,0,VALID,23.0769,VALID,106,VALID,0.473047,
2009-03-27, 03:28:04,VALID,1000.92,VALID,0,VALID,91.0824,VALID,0,VALID,23.0769,VALID,106,VALID,0.510938,
2009-03-27, 03:29:04,VALID,1000.93,VALID,0,VALID,90.9298,VALID,0,VALID,23.0573,VALID,106,VALID,0.678125,
2009-03-27, 03:30:04,VALID,1000.91,VALID,0,VALID,90.9222,VALID,0,VALID,23.0786,VALID,106,VALID,0.686719,
2009-03-27, 03:31:04,VALID,1000.93,VALID,0,VALID,91.029,VALID,0,VALID,23.0786,VALID,106,VALID,0.553516,
2009-03-27, 03:32:04,VALID,1000.89,VALID,0,VALID,91.0824,VALID,0,VALID,23.0786,VALID,106,VALID,0.396094,
2009-03-27, 03:33:04,VALID,1000.92,VALID,0,VALID,91.09,VALID,0,VALID,23.0378,VALID,106,VALID,0.172266,
2009-03-27, 03:34:04,VALID,1000.9,VALID,0,VALID,91.09,VALID,0,VALID,23.0591,VALID,106,VALID,0,
2009-03-27, 03:35:04,VALID,1000.92,VALID,0,VALID,91.1663,VALID,0,VALID,23.0396,VALID,106,VALID,0,
2009-03-27, 03:36:04,VALID,1000.92,VALID,0,VALID,91.1511,VALID,0,VALID,23.0396,VALID,106,VALID,0,
2009-03-27, 03:37:04,VALID,1000.94,VALID,0,VALID,91.174,VALID,0,VALID,23.0006,VALID,106,VALID,0,
2009-03-27, 03:38:04,VALID,1000.92,VALID,0,VALID,91.1816,VALID,0,VALID,23.0006,VALID,106,VALID,0.0472656,
2009-03-27, 03:39:04,VALID,1000.94,VALID,0,VALID,91.174,VALID,0,VALID,23.0006,VALID,106,VALID,0.297266,
2009-03-27, 03:40:04,VALID,1000.94,VALID,0,VALID,91.3189,VALID,0,VALID,22.9811,VALID,106,VALID,0.35,
2009-03-27, 03:41:04,VALID,1000.95,VALID,0,VALID,91.296,VALID,0,VALID,23.0006,VALID,106,VALID,0.537891,
2009-03-27, 03:42:04,VALID,1000.95,VALID,0,VALID,91.0824,VALID,0,VALID,23.0006,VALID,106,VALID,0.642187,
2009-03-27, 03:43:04,VALID,1000.94,VALID,0,VALID,90.9146,VALID,0,VALID,23.0006,VALID,106,VALID,0.564844,
2009-03-27, 03:44:04,VALID,1000.95,VALID,0,VALID,90.8611,VALID,0,VALID,23.0023,VALID,106,VALID,0.573438,
2009-03-27, 03:45:04,VALID,1000.95,VALID,0,VALID,90.9451,VALID,0,VALID,23.0201,VALID,106,VALID,0.544922,
2009-03-27, 03:46:04,VALID,1000.95,VALID,0,VALID,90.823,VALID,0,VALID,23.0201,VALID,106,VALID,0.657031,